| time (UTC) | temp F | wind direction | speed MPH | gust MPH | rain 1hr in | rain 24hr in | rain mn in | humidity % | barometer mb |
| 20260503024716 | 56 | 0.0 | 0.0 | 0.00 | 0.30 | 0.01 | 96 | 1011.5 | |
| 20260503023733 | 56 | 0.0 | 0.0 | 0.00 | 0.30 | 0.01 | 96 | 1011.9 | |
| 20260503022735 | 55 | 319 | 0.0 | 1.0 | 0.00 | 0.30 | 0.01 | 96 | 1011.9 |
| 20260503021727 | 56 | 0.0 | 0.0 | 0.00 | 0.30 | 0.01 | 96 | 1011.8 | |
| 20260503020724 | 56 | 0.0 | 0.0 | 0.00 | 0.30 | 0.01 | 96 | 1011.6 | |
| 20260503015720 | 56 | 0.0 | 0.0 | 0.00 | 0.30 | 0.01 | 95 | 1011.6 | |
| 20260503014717 | 56 | 200 | 0.0 | 1.0 | 0.00 | 0.30 | 0.01 | 96 | 1011.6 |
| 20260503013735 | 56 | 0.0 | 0.0 | 0.00 | 0.30 | 0.01 | 95 | 1011.7 | |
| 20260503012731 | 56 | 0.0 | 0.0 | 0.00 | 0.30 | 0.01 | 95 | 1011.7 | |
| 20260503011728 | 57 | 0.0 | 0.0 | 0.00 | 0.30 | 0.01 | 95 | 1011.8 | |
| 20260503010725 | 57 | 0.0 | 0.0 | 0.00 | 0.30 | 0.01 | 95 | 1012.0 | |
| 20260503005722 | 57 | 0.0 | 0.0 | 0.00 | 0.30 | 0.01 | 95 | 1012.1 | |
| 20260503004719 | 57 | 184 | 0.0 | 1.0 | 0.00 | 0.30 | 0.01 | 95 | 1012.4 |
| 20260503003715 | 57 | 0.0 | 0.0 | 0.00 | 0.30 | 0.01 | 95 | 1012.4 | |
| 20260503002737 | 57 | 0.0 | 0.0 | 0.00 | 0.30 | 0.01 | 95 | 1012.6 | |
| 20260503001729 | 57 | 0.0 | 0.0 | 0.00 | 0.30 | 0.01 | 95 | 1013.0 | |
| 20260503000728 | 57 | 0.0 | 0.0 | 0.00 | 0.30 | 0.01 | 96 | 1013.2 | |
| 20260502235724 | 57 | 271 | 0.0 | 1.0 | 0.00 | 0.30 | 0.01 | 96 | 1013.5 |
| 20260502234720 | 57 | 235 | 1.0 | 2.0 | 0.01 | 0.30 | 0.01 | 96 | 1013.7 |
| 20260502233717 | 57 | 261 | 0.0 | 1.0 | 0.01 | 0.30 | 0.01 | 95 | 1013.5 |
| 20260502232734 | 58 | 210 | 0.0 | 1.0 | 0.01 | 0.30 | 0.01 | 95 | 1013.3 |
| 20260502231732 | 58 | 0.0 | 0.0 | 0.01 | 0.30 | 0.01 | 95 | 1013.1 | |
| 20260502230728 | 58 | 0.0 | 0.0 | 0.01 | 0.30 | 0.01 | 94 | 1012.9 | |
| 20260502225725 | 58 | 0.0 | 0.0 | 0.01 | 0.30 | 0.01 | 94 | 1012.9 | |
| 20260502224722 | 58 | 0.0 | 0.0 | 0.00 | 0.29 | 0.00 | 94 | 1013.0 | |
| 20260502223719 | 58 | 0.0 | 0.0 | 0.00 | 0.29 | 0.00 | 94 | 1013.0 | |
| 20260502222715 | 58 | 0.0 | 0.0 | 0.00 | 0.29 | 0.00 | 93 | 1013.1 | |
| 20260502221732 | 58 | 0.0 | 0.0 | 0.00 | 0.29 | 0.00 | 93 | 1013.0 | |
| 20260502220729 | 58 | 0.0 | 0.0 | 0.01 | 0.29 | 0.00 | 93 | 1013.2 | |
| 20260502215726 | 58 | 0.0 | 0.0 | 0.03 | 0.29 | 0.29 | 93 | 1013.3 | |
| 20260502214723 | 58 | 201 | 1.0 | 2.0 | 0.05 | 0.29 | 0.29 | 93 | 1013.3 |
| 20260502213719 | 58 | 229 | 1.0 | 2.0 | 0.06 | 0.29 | 0.29 | 93 | 1013.2 |
| 20260502212716 | 59 | 0.0 | 0.0 | 0.06 | 0.29 | 0.29 | 92 | 1013.0 | |
| 20260502211734 | 59 | 0.0 | 0.0 | 0.12 | 0.29 | 0.29 | 91 | 1013.4 | |
| 20260502210730 | 59 | 0.0 | 0.0 | 0.16 | 0.28 | 0.28 | 90 | 1014.0 | |
| 20260502205726 | 59 | 129 | 0.0 | 2.0 | 0.16 | 0.26 | 0.26 | 90 | 1014.3 |
| 20260502204724 | 59 | 158 | 2.0 | 7.0 | 0.18 | 0.24 | 0.24 | 91 | 1014.5 |
| 20260502203720 | 59 | 157 | 1.0 | 3.0 | 0.23 | 0.23 | 0.23 | 91 | 1014.3 |
| 20260502202717 | 59 | 148 | 1.0 | 7.0 | 0.23 | 0.23 | 0.23 | 91 | 1014.6 |
| 20260502201734 | 60 | 178 | 1.0 | 4.0 | 0.17 | 0.17 | 0.17 | 91 | 1015.0 |
| 20260502200731 | 60 | 149 | 2.0 | 4.0 | 0.12 | 0.12 | 0.12 | 89 | 1015.1 |
| 20260502195728 | 61 | 157 | 3.0 | 9.0 | 0.10 | 0.10 | 0.10 | 86 | 1015.4 |
| 20260502194725 | 66 | 155 | 4.0 | 13.0 | 0.06 | 0.06 | 0.06 | 76 | 1014.8 |
| 20260502193721 | 66 | 141 | 1.0 | 6.0 | 0.00 | 0.00 | 0.00 | 73 | 1014.4 |
| 20260502192718 | 66 | 150 | 1.0 | 2.0 | 0.00 | 0.00 | 0.00 | 75 | 1013.9 |
| 20260502191735 | 66 | 0.0 | 0.0 | 0.00 | 0.00 | 0.00 | 74 | 1013.3 | |
| 20260502190732 | 66 | 0.0 | 0.0 | 0.00 | 0.00 | 0.00 | 73 | 1013.2 | |
| 20260502185730 | 67 | 0.0 | 0.0 | 0.00 | 0.00 | 0.00 | 70 | 1013.2 | |
| 20260502184727 | 68 | 0.0 | 0.0 | 0.00 | 0.00 | 0.00 | 69 | 1013.2 | |
| 20260502183722 | 68 | 0.0 | 0.0 | 0.00 | 0.00 | 0.00 | 67 | 1013.3 | |
| 20260502182719 | 69 | 0.0 | 0.0 | 0.00 | 0.00 | 0.00 | 66 | 1013.3 | |
| 20260502181715 | 70 | 0.0 | 0.0 | 0.00 | 0.00 | 0.00 | 65 | 1013.3 | |
| 20260502180737 | 71 | 126 | 0.0 | 1.0 | 0.00 | 0.00 | 0.00 | 63 | 1013.4 |
| 20260502163722 | 71 | 163 | 1.0 | 3.0 | 0.00 | 0.00 | 0.00 | 58 | 1014.0 |
| 20260502162719 | 71 | 167 | 1.0 | 4.0 | 0.00 | 0.00 | 0.00 | 58 | 1014.3 |
| 20260502161716 | 72 | 152 | 2.0 | 6.0 | 0.00 | 0.00 | 0.00 | 58 | 1014.3 |
| 20260502160733 | 75 | 155 | 2.0 | 6.0 | 0.00 | 0.00 | 0.00 | 52 | 1014.4 |
| 20260502151716 | 76 | 245 | 3.0 | 7.0 | 0.00 | 0.00 | 0.00 | 50 | 1014.9 |
| 20260502150732 | 75 | 251 | 1.0 | 3.0 | 0.00 | 0.00 | 0.00 | 51 | 1015.1 |
| 20260502130734 | 76 | 219 | 2.0 | 6.0 | 0.00 | 0.00 | 0.00 | 48 | 1016.0 |
| 20260502123724 | 77 | 257 | 3.0 | 8.0 | 0.00 | 0.00 | 0.00 | 48 | 1016.4 |
| 20260502122720 | 75 | 269 | 3.0 | 9.0 | 0.00 | 0.00 | 0.00 | 50 | 1016.5 |
| 20260502121717 | 76 | 266 | 3.0 | 7.0 | 0.00 | 0.00 | 0.00 | 49 | 1016.6 |
| 20260502120734 | 75 | 232 | 2.0 | 6.0 | 0.00 | 0.00 | 0.00 | 48 | 1016.8 |
| 20260502115731 | 74 | 240 | 3.0 | 6.0 | 0.00 | 0.00 | 0.00 | 50 | 1016.8 |
| 20260502114728 | 74 | 263 | 3.0 | 4.0 | 0.00 | 0.00 | 0.00 | 51 | 1016.9 |
| 20260502113723 | 73 | 252 | 3.0 | 9.0 | 0.00 | 0.00 | 0.00 | 52 | 1016.9 |
| 20260502112719 | 73 | 254 | 3.0 | 7.0 | 0.00 | 0.00 | 0.00 | 52 | 1017.1 |
| 20260502111716 | 74 | 276 | 3.0 | 7.0 | 0.00 | 0.00 | 0.00 | 49 | 1017.2 |
| 20260502110733 | 73 | 258 | 2.0 | 6.0 | 0.00 | 0.00 | 0.00 | 49 | 1017.1 |
| 20260502105730 | 73 | 261 | 4.0 | 7.0 | 0.00 | 0.00 | 0.00 | 48 | 1017.3 |
| 20260502104728 | 74 | 251 | 3.0 | 7.0 | 0.00 | 0.00 | 0.00 | 47 | 1017.4 |
| 20260502103723 | 72 | 229 | 2.0 | 7.0 | 0.00 | 0.00 | 0.00 | 47 | 1017.4 |
| 20260502102720 | 73 | 257 | 3.0 | 7.0 | 0.00 | 0.00 | 0.00 | 47 | 1017.5 |
| 20260502101716 | 74 | 252 | 3.0 | 6.0 | 0.00 | 0.00 | 0.00 | 47 | 1017.6 |
| 20260502100738 | 74 | 237 | 2.0 | 4.0 | 0.00 | 0.00 | 0.00 | 46 | 1017.6 |
| 20260502090732 | 70 | 233 | 1.0 | 4.0 | 0.00 | 0.00 | 0.00 | 46 | 1018.0 |
| 20260502070732 | 62 | 190 | 0.0 | 3.0 | 0.00 | 0.00 | 0.00 | 51 | 1018.1 |
| 20260502065729 | 61 | 159 | 1.0 | 4.0 | 0.00 | 0.00 | 0.00 | 52 | 1018.2 |
| 20260502064725 | 61 | 141 | 1.0 | 6.0 | 0.00 | 0.00 | 0.00 | 53 | 1018.4 |
| 20260502063722 | 60 | 180 | 1.0 | 3.0 | 0.00 | 0.00 | 0.00 | 54 | 1018.3 |
| 20260502062719 | 59 | 153 | 0.0 | 3.0 | 0.00 | 0.00 | 0.00 | 55 | 1018.2 |
| 20260502061715 | 59 | 152 | 1.0 | 3.0 | 0.00 | 0.00 | 0.00 | 56 | 1018.2 |
| 20260502060732 | 58 | 151 | 1.0 | 4.0 | 0.00 | 0.00 | 0.00 | 56 | 1018.2 |
| 20260502055729 | 58 | 167 | 2.0 | 6.0 | 0.00 | 0.00 | 0.00 | 56 | 1018.3 |
| 20260502054726 | 57 | 164 | 1.0 | 3.0 | 0.00 | 0.00 | 0.00 | 56 | 1018.3 |
| 20260502053723 | 56 | 163 | 1.0 | 4.0 | 0.00 | 0.00 | 0.00 | 57 | 1018.2 |
| 20260502052719 | 56 | 155 | 1.0 | 4.0 | 0.00 | 0.00 | 0.00 | 58 | 1018.3 |
| 20260502051717 | 55 | 156 | 1.0 | 3.0 | 0.00 | 0.00 | 0.00 | 58 | 1018.2 |
| 20260502050733 | 55 | 150 | 1.0 | 3.0 | 0.00 | 0.00 | 0.00 | 58 | 1018.3 |
| 20260502045729 | 54 | 161 | 1.0 | 3.0 | 0.00 | 0.00 | 0.00 | 59 | 1018.3 |
| 20260502044726 | 54 | 160 | 1.0 | 3.0 | 0.00 | 0.00 | 0.00 | 59 | 1018.5 |
| 20260502043723 | 54 | 164 | 1.0 | 2.0 | 0.00 | 0.00 | 0.00 | 59 | 1018.5 |
| 20260502042719 | 54 | 164 | 1.0 | 3.0 | 0.00 | 0.00 | 0.00 | 59 | 1018.5 |
| 20260502041716 | 54 | 162 | 0.0 | 3.0 | 0.00 | 0.00 | 0.00 | 59 | 1018.5 |
| 20260502040733 | 54 | 157 | 0.0 | 3.0 | 0.00 | 0.00 | 0.00 | 59 | 1018.6 |
| 20260502035730 | 54 | 149 | 0.0 | 2.0 | 0.00 | 0.00 | 0.00 | 59 | 1018.7 |
| 20260502034726 | 54 | 156 | 1.0 | 3.0 | 0.00 | 0.00 | 0.00 | 58 | 1018.7 |
| 20260502033723 | 54 | 168 | 1.0 | 2.0 | 0.00 | 0.00 | 0.00 | 58 | 1018.8 |
| 20260502032719 | 55 | 150 | 0.0 | 2.0 | 0.00 | 0.00 | 0.00 | 57 | 1018.8 |
| 20260502031716 | 55 | 160 | 1.0 | 2.0 | 0.00 | 0.00 | 0.00 | 57 | 1018.8 |
| 20260502030733 | 55 | 154 | 1.0 | 2.0 | 0.00 | 0.00 | 0.00 | 56 | 1018.9 |
| 20260502025732 | 55 | 160 | 1.0 | 2.0 | 0.00 | 0.00 | 0.00 | 56 | 1019.0 |